2000 BH19 

Epoch 2000 Feb. 6.0 TT = JDT 2451580.5                  Nakano

M   2.35323              (2000.0)            P               Q

n   0.34051680     Peri.  134.55348     -0.56020428     -0.82834387

a   2.0310020      Node   349.51406     +0.75331741     -0.50734510

e   0.4567833      Incl.    1.32077     +0.34450551     -0.23758658

P   2.89           H   19.5           G   0.15           U   *

Residuals in seconds of arc 

000129 704  0.5-  0.1-    000201 046  0.3-  0.2-    000203 422  0.1+  0.2+  

000129 704  0.1-  0.2+    000201 046  0.2-  0.1-    000203 422  0.3+  0.3+  

000129 704  0.0   0.2-    000201 046  0.1+  0.2-    000203 422  0.3+  0.2+  

000129 704  0.2+  0.1+    000201 118  0.0   0.3-    000203 402  0.2+  0.6+  

000129 704  0.7-  0.7-    000201 118  0.2+  0.1+    000203 402  0.4-  0.4+  

000130 704  0.0   0.1-    000201 118  0.1+  0.2-    000203 402  0.3-  0.0   

000130 704  0.5-  0.1-    000202 858  0.1-  0.1+    000203 402  0.4+  0.3+  

000130 704  0.1+  0.0     000202 858  0.1-  0.0     000205 104  0.2-  0.0   

000130 704  0.1+  0.3+    000202 850  0.3+  0.2-    000205 104  0.1+  0.1+  

000130 642  0.1-  0.7+    000202 704  0.2-  0.2-    000206 670  0.9-  0.5+  

000130 704  0.4-  0.0     000202 850  1.1-  0.2-    000206 670  0.9+  0.1+  

000130 704  0.6+  0.1-    000202 704  0.2-  0.0     000206 118  0.6+  0.1-  

000130 704  0.1+  0.7-    000202 704  0.4-  0.3+    000206 118  0.6+  0.1-  

000130 704  0.1+  0.3+    000202 670  0.7-  0.1+    000206 118  0.7+  0.1+  

000130 704  0.0   0.1+    000202 704  0.2-  0.1-    000208 413  0.2+  0.0   

000130 704  0.2+  0.5+    000202 670  1.6+  0.3-    000208 413  0.2+  0.1+  

000130 704  0.1+  0.0     000202 704  0.0   0.0     000209 726  0.1+  0.3-  

000130 704  0.9+  0.3+    000202 670  0.0   0.1+    000209 726  1.7-  1.7-  

000130 704  0.1+  1.0+    000202 651  0.4+  0.3-    000209 726  1.6-  1.6-  

000130 704  0.1-  0.2+    000202 651 (2.2-  2.7-)   000209 726 (1.2-  3.6-) 

000130 557  0.3-  0.2-    000202 651  0.4+  0.1-    000209 726  0.7+  0.1+  

000130 557  0.1-  0.1-    000202 422  0.5-  0.2+    000210 108  0.5+  0.6-  

000130 557  0.6-  0.1-    000202 422  0.2+  0.1-    000210 108  0.9+  0.2+  

000130 118  0.7-  0.1-    000202 422  0.2-  0.1-    000210 046  0.2-  0.2-  

000130 118  0.1-  0.3-    000202 422  0.1+  0.3-    000210 046  0.3-  0.0   

000130 118  0.0   0.3-    000202 348  0.1+  0.5+    000210 046  0.1+  0.1-  

000130 106  0.3+  0.0     000202 348  1.1+  0.1+    000210 046  0.2-  0.2-  

000130 106  0.4+  0.3-    000202 557  0.0   0.1+    000210 108  0.9-  0.3+  

000131 858  0.1+  0.1+    000202 557  0.2+  0.1-    000211 704  0.0   0.5+  

000131 858  0.4-  0.4-    000202 557  0.1-  0.1-    000211 704  0.5-  0.2+  

000131 704  0.1+  0.2+    000203 860  0.6-  1.0-    000211 704  0.7-  0.1+  

000131 704  0.2+  0.0     000203 860  0.3+  0.8-    000211 704  0.5-  0.0   

000131 704  0.1+  0.5+    000203 858  0.2-  0.1+    000211 704  0.2-  1.3+  

000131 704  0.1-  0.2-    000203 858  0.0   0.1+    000211 360  0.0   0.0   

000131 704  0.1+  0.0     000203 858  0.0   0.0     000211 360  0.1+  0.1+  

000201 681  0.2+  0.3+    000203 704  0.2-  0.4+    000211 360  0.4+  0.0   

000201 681  0.3+  0.0     000203 704  0.5-  0.4+    000211 118  0.1+  0.3+  

000201 681  0.4+  0.1+    000203 704  0.3-  0.3+    000211 118  0.5+  0.1+  

000201 681  0.3+  0.0     000203 670  0.0   0.6+    000214 046  0.4+  0.3+  

000201 557  0.2+  0.6-    000203 704  0.0   0.5+    000214 046  0.1+  0.2-  

000201 557  0.1-  0.2-    000203 704  0.2-  0.2+    000214 046  0.1-  0.1-  

000201 557  0.1+  0.2-    000203 670  1.0+  0.0     000214 046  0.5+  0.0   

000201 046  0.1-  0.4-    000203 670  0.5-  0.3+                            

 

NAKANO

         **** Don't distribute anyone except personal use only ****

                (C) Copyright 2000 OAA/ComputingSection

write mail from CFAD0::NAKANO on 2000-02-16 04:06:38(JST).





 2000 BH19 

Epoch 2000 Feb. 6.0 TT = JDT 2451580.5                  Nakano

M   2.34264              (2000.0)            P               Q

n   0.33906857     Peri.  134.55128     -0.56004028     -0.82845469

a   2.0367811      Node   349.50491     +0.75340291     -0.50717887

e   0.4581610      Incl.    1.32386     +0.34458517     -0.23755508

P   2.91           H   19.5           G   0.15           U   *



NAKANO

         **** Don't distribute anyone except personal use only ****

                (C) Copyright 2000 OAA/ComputingSection

write mail from CFAD0::NAKANO on 2000-02-06 23:55:12(JST).





–ß‚è‚Ü‚·B